#timestamp,LO_Frequency,Hit,StdDev 
1647640815.4,286046993.8,N
1647640835.2,286046994.0,N
1647640855.1,286046993.7,N
1647640856.0,286046993.7,N
1647640875.8,286046996.3,N
1647640895.7,286046993.4,N
1647640915.5,286046995.9,N
1647640935.3,286046995.8,N
1647640955.2,286046993.4,N
1647640975.0,286046998.0,N
1647640975.9,286046998.0,N
1647640995.7,286046997.8,N
1647641015.6,286046997.6,N
1647641035.4,286046999.5,N
1647641055.3,286046998.5,N
1647641075.1,286046998.9,N
1647641076.0,286046998.9,N
1647641095.8,286046998.6,N
1647641115.7,286047000.9,N
1647641135.5,286047000.7,N
1647641155.3,286047001.2,N
1647641175.2,286046999.4,N
1647641195.0,286046998.5,N
1647641195.9,286046998.5,N
1647641215.8,286046999.6,N
1647641235.6,286046997.7,N
1647641255.5,286046998.3,N
1647641275.3,286046999.7,N
1647641295.1,286047000.5,N
1647641315.9,286046999.8,N
1647641335.7,286047002.0,N
1647641355.5,286047002.2,N
1647641375.4,286047004.1,N
1647641395.2,286047002.6,N
1647641415.1,286047000.5,N
1647641416.0,286047000.5,N
1647641435.8,286047000.7,N
1647641455.6,286047000.3,N
1647641475.5,286046999.5,N
1647641495.3,286046998.1,N
1647641515.2,286046998.3,N
1647641535.9,286047000.1,N
1647641555.7,286047002.4,N
1647641575.6,286047002.1,N
1647641595.4,286046998.6,N
1647641615.3,286046999.3,N
1647641635.1,286046999.0,N
1647641636.0,286046999.0,N
1647641655.8,286046996.9,N
1647641675.7,286046999.0,N
1647641695.5,286046999.3,N
1647641715.4,286046999.0,N
1647641735.2,286046998.5,N
1647641755.0,286047001.2,N
1647641755.9,286047001.2,N
1647641775.8,286047001.1,N
1647641795.6,286047001.1,N
1647641815.4,286047000.4,N
1647641835.3,286047002.4,N
1647641855.1,286047000.0,N
1647641875.9,286047002.5,N
1647641895.7,286047002.1,N
1647641915.6,286047002.7,N
1647641935.4,286047001.0,N
1647641955.2,286046999.8,N
1647641975.1,286047000.2,N
1647641976.0,286047000.2,N
1647641995.8,286047003.9,N
1647642015.7,286047003.9,N
1647642035.5,286047001.8,N
1647642055.3,286047002.2,N
1647642075.2,286047003.7,N
1647642095.0,286047005.3,Y
1647642095.9,286047005.3,P
1647642115.8,286047002.9,N
1647642135.6,286047003.6,N
1647642155.4,286047003.9,N
1647642175.3,286047003.8,N
1647642195.1,286047004.2,Y
1647642215.8,286047000.8,P
1647642235.7,286046998.2,N
1647642255.5,286047000.3,N
1647642275.4,286047000.9,N
1647642295.2,286046998.7,N
1647642315.0,286046998.8,N
1647642315.9,286046998.8,N
1647642335.8,286047001.1,N
1647642355.6,286046998.5,N
1647642375.5,286047000.6,N
1647642395.3,286046999.8,N
1647642415.1,286047002.6,N
1647642435.9,286047002.8,N
1647642455.7,286047001.5,N
1647642475.5,286046999.7,N
1647642495.4,286047003.4,N
1647642515.2,286047004.0,N
1647642535.1,286047003.9,N
1647642536.0,286047003.9,N
1647642555.8,286047005.5,N
1647642575.6,286047001.4,N
1647642595.5,286047000.3,N
1647642615.3,286046999.7,N
1647642635.1,286047000.6,N
1647642655.9,286047003.3,N
1647642675.7,286047003.5,N
1647642695.6,286047002.5,N
1647642715.4,286047001.5,N
1647642735.2,286047002.8,N
1647642755.1,286047002.2,N
1647642756.0,286047002.2,N
1647642775.8,286047001.6,N
1647642795.7,286047004.4,N
1647642815.5,286047003.8,N
1647642835.3,286047005.9,Y
1647642855.2,286047000.3,P
1647642875.0,286047000.7,N
1647642875.9,286047000.7,N
1647642895.8,286047001.2,N
1647642915.6,286047001.1,N
1647642935.4,286046998.2,Y
1647642955.3,286046999.5,P
1647642975.1,286046998.7,N
1647642995.8,286047001.2,N
1647643015.7,286047001.1,N
1647643035.5,286047001.0,N
1647643055.4,286047002.2,N
1647643075.2,286046999.9,N
1647643095.0,286047002.0,N
1647643095.9,286047002.0,N
1647643115.8,286047001.3,N
1647643135.6,286047002.4,N
1647643155.5,286047000.1,N
1647643175.3,286046999.0,N
1647643195.1,286047000.6,N
1647643215.9,286047001.2,N
1647643235.7,286046998.9,N
1647643255.5,286046998.6,N
1647643275.4,286046999.9,N
1647643295.2,286047000.4,N
1647643315.1,286046998.1,N
1647643316.0,286046998.1,N
1647643335.8,286047000.5,N
1647643355.6,286047000.7,N
1647643375.5,286047000.8,N
1647643395.8,286047002.2,N
1647643415.6,286047000.8,N
1647643435.4,286047000.2,N
1647643455.3,286047000.2,N
1647643475.1,286047000.6,N
1647643495.8,286047000.7,N
1647643515.7,286046996.7,N
1647643535.5,286047000.5,N
1647643555.4,286047000.8,N
1647643575.2,286046998.1,N
1647643595.0,286046998.8,N
1647643595.9,286046998.8,N
1647643615.8,286047000.6,N
1647643635.6,286047000.2,N
1647643655.5,286047000.8,N
1647643675.3,286047001.0,N
1647643695.1,286047002.2,N
1647643715.9,286047000.2,N
1647643735.7,286047000.7,N
1647643755.6,286047002.3,N
1647643775.4,286047001.0,N
1647643795.2,286046999.0,N
1647643815.1,286046998.6,N
1647643816.0,286046998.6,N
1647643835.8,286047000.2,N
1647643855.6,286047000.0,N
1647643875.5,286046998.1,N
1647643895.3,286046999.3,N
1647643915.2,286047000.4,N
1647643935.9,286047000.8,N
1647643955.7,286047002.7,N
1647643975.6,286047000.7,N
1647643995.4,286047001.0,N
1647644015.3,286046999.7,N
1647644035.1,286047002.0,N
1647644036.0,286047002.0,N
1647644055.8,286047000.6,N
1647644075.7,286047004.4,Y
1647644095.5,286046999.9,P
1647644115.3,286046998.3,P
1647644135.2,286047000.1,N
1647644155.0,286047002.4,N
1647644155.9,286047002.4,N
1647644175.8,286047001.1,N
1647644195.6,286046999.8,N
1647644215.4,286047000.5,N
1647644235.7,286047002.2,N
1647644255.6,286046999.8,N
1647644275.4,286047002.3,N
1647644295.2,286047000.4,N
1647644315.1,286047002.4,N
1647644316.0,286047002.4,N
1647644335.8,286047000.7,N
1647644355.7,286047000.6,N
1647644375.5,286047001.9,N
1647644395.3,286047001.1,N
